Location: Unspecified
(0.0000°N, 0.0000°E)
Time: 20:22:00
(UTC+00:00)

Envisat - Pass Details

Date: 07 June 2020
Orbit: 764 x 766 km, 98.1° (Epoch: 29 October)

Event Time Altitude Azimuth Distance (km) Brightness Sun altitude
Rises 05:07:47 0° 37° (NE) 3,214 7.4 -11.8°
Reaches altitude 10° 05:10:33 10° 52° (NE) 2,292 6.9 -11.1°
Maximum altitude 05:14:25 22° 102° (ESE) 1,611 5.4 -10.3°
Drops below altitude 10° 05:18:17 10° 152° (SSE) 2,299 5.5 -9.4°
Sets 05:21:02 0° 167° (SSE) 3,227 6.1 -8.7°
